User: anonymous   Login
Location: Corralito
(10.2667°N, 66.9500°W)
Time: 15:27:47
(UTC+00:00)
Language:

Spot 1 - Orbit

View from above orbital plane
View from above orbital plane
View from above satellite
View from above satellite

Ground track
Ground track

The orbit data is extracted from the following two-line orbital elements,

1 16613U 86019A   23270.61538638  .00002198  00000-0  35249-3 0  9991
2 16613  98.7365 125.8158 0140436 127.2983 234.1117 14.66442104665331
Epoch (UTC): 27 September 2023 14:46:09
Eccentricity: 0.0140436
inclination: 98.7365°
perigee height: 573 km
apogee height: 771 km
right ascension of ascending node: 125.8158°
argument of perigee: 127.2983°
revolutions per day: 14.66442104
mean anomaly at epoch: 234.1117°
orbit number at epoch: 66533

The dashed part of the orbit path shows where the satellite is in the earth's shadow,  

DLR